Location: Newark
(35.6799°N, 139.7636°E)
Time: 12:29:35
(UTC+00:00)

Vanguard 1 Rocket - Pass Details

Date: 21 December 2019
Orbit: 650 x 4226 km, 34.3° (Epoch: 17 January)

Event Time Altitude Azimuth Distance (km) Brightness Sun altitude
Rises 13:33:05 0° 283° (WNW) 7,646 12.3 -71.2°
Reaches altitude 10° 13:39:02 10° 281° (W) 6,130 11.7 -72.2°
Enters shadow 13:44:06 21° 278° (W) 4,754 11.0 -72.9°
